| time (UTC) | temp F | wind direction | speed MPH | gust MPH | rain 1hr in | rain 24hr in | rain mn in | humidity % | barometer mb |
| 20260905093502 | 60 | 328 | 0.0 | 2.0 | 0.00 | 0.00 | 0.00 | 93 | 1009.8 |
| 20260905093001 | 60 | 285 | 0.0 | 2.0 | 0.00 | 0.00 | 0.00 | 93 | 1009.8 |
| 20260905092604 | 61 | 274 | 0.0 | 1.0 | 0.00 | 0.00 | 0.00 | 93 | 1009.8 |
| 20260905092502 | 61 | 274 | 0.0 | 1.0 | 0.00 | 0.00 | 0.00 | 93 | 1009.7 |
| 20260905092100 | 61 | 274 | 0.0 | 1.0 | 0.00 | 0.00 | 0.00 | 93 | 1009.8 |
| 20260905091633 | 61 | 274 | 0.0 | 1.0 | 0.00 | 0.00 | 0.00 | 93 | 1009.8 |
| 20260905091100 | 61 | 274 | 0.0 | 1.0 | 0.00 | 0.00 | 0.00 | 93 | 1009.7 |
| 20260905090559 | 61 | 259 | 0.0 | 1.0 | 0.00 | 0.00 | 0.00 | 93 | 1009.8 |
| 20260905090059 | 61 | 283 | 0.0 | 1.0 | 0.00 | 0.00 | 0.00 | 93 | 1009.8 |
| 20260905085559 | 61 | 261 | 0.0 | 2.0 | 0.00 | 0.00 | 0.00 | 93 | 1009.8 |
| 20260905085059 | 61 | 243 | 0.0 | 0.0 | 0.00 | 0.00 | 0.00 | 92 | 1009.9 |
| 20260905084612 | 61 | 243 | 0.0 | 1.0 | 0.00 | 0.00 | 0.00 | 92 | 1009.8 |
| 20260905084200 | 61 | 243 | 0.0 | 1.0 | 0.00 | 0.00 | 0.00 | 92 | 1009.8 |
| 20260905083557 | 61 | 328 | 0.0 | 0.0 | 0.00 | 0.00 | 0.00 | 92 | 1009.7 |
| 20260905083056 | 61 | 328 | 0.0 | 0.0 | 0.00 | 0.00 | 0.00 | 92 | 1009.7 |
| 20260905082556 | 61 | 328 | 0.0 | 1.0 | 0.00 | 0.00 | 0.00 | 92 | 1009.8 |
| 20260905082055 | 61 | 328 | 0.0 | 1.0 | 0.00 | 0.00 | 0.00 | 92 | 1009.8 |
| 20260905081555 | 61 | 290 | 0.0 | 3.0 | 0.00 | 0.00 | 0.00 | 92 | 1010.0 |
| 20260905081054 | 61 | 295 | 0.0 | 3.0 | 0.00 | 0.00 | 0.00 | 92 | 1010.0 |
| 20260905080553 | 61 | 315 | 0.0 | 1.0 | 0.00 | 0.00 | 0.00 | 91 | 1010.0 |
| 20260905080100 | 61 | 295 | 0.0 | 2.0 | 0.00 | 0.00 | 0.00 | 91 | 1010.1 |
| 20260905075553 | 61 | 295 | 0.0 | 2.0 | 0.00 | 0.00 | 0.00 | 91 | 1010.2 |
| 20260905075054 | 61 | 291 | 0.0 | 1.0 | 0.00 | 0.00 | 0.00 | 91 | 1010.1 |
| 20260905074602 | 62 | 290 | 0.0 | 1.0 | 0.00 | 0.00 | 0.00 | 91 | 1010.1 |
| 20260905074051 | 62 | 293 | 0.0 | 1.0 | 0.00 | 0.00 | 0.00 | 90 | 1010.0 |
| 20260905073551 | 62 | 293 | 0.0 | 1.0 | 0.00 | 0.00 | 0.00 | 90 | 1010.0 |
| 20260905073051 | 62 | 295 | 0.0 | 1.0 | 0.00 | 0.00 | 0.00 | 90 | 1010.1 |
| 20260905072550 | 62 | 295 | 0.0 | 0.0 | 0.00 | 0.00 | 0.00 | 90 | 1010.1 |
| 20260905072049 | 62 | 295 | 0.0 | 1.0 | 0.00 | 0.00 | 0.00 | 90 | 1010.2 |
| 20260905071549 | 62 | 295 | 0.0 | 1.0 | 0.00 | 0.00 | 0.00 | 90 | 1010.2 |
| 20260905071049 | 62 | 353 | 0.0 | 1.0 | 0.00 | 0.00 | 0.00 | 90 | 1010.2 |
| 20260905070548 | 62 | 300 | 0.0 | 2.0 | 0.00 | 0.00 | 0.00 | 90 | 1010.3 |
| 20260905070105 | 62 | 301 | 0.0 | 1.0 | 0.00 | 0.00 | 0.00 | 89 | 1010.2 |
| 20260905065548 | 62 | 271 | 0.0 | 1.0 | 0.00 | 0.00 | 0.00 | 89 | 1010.2 |
| 20260905065047 | 62 | 289 | 0.0 | 1.0 | 0.00 | 0.00 | 0.00 | 89 | 1010.3 |
| 20260905064548 | 62 | 288 | 0.0 | 1.0 | 0.00 | 0.00 | 0.00 | 89 | 1010.3 |
| 20260905064045 | 62 | 292 | 0.0 | 2.0 | 0.00 | 0.00 | 0.00 | 89 | 1010.5 |
| 20260905063545 | 62 | 283 | 0.0 | 3.0 | 0.00 | 0.00 | 0.00 | 89 | 1010.4 |
| 20260905063045 | 62 | 303 | 0.0 | 4.0 | 0.00 | 0.00 | 0.00 | 89 | 1010.4 |
| 20260905062544 | 62 | 300 | 2.0 | 4.0 | 0.00 | 0.00 | 0.00 | 89 | 1010.5 |
| 20260905062043 | 62 | 303 | 0.0 | 4.0 | 0.00 | 0.00 | 0.00 | 89 | 1010.5 |
| 20260905061543 | 62 | 292 | 0.0 | 4.0 | 0.00 | 0.00 | 0.00 | 89 | 1010.5 |
| 20260905061044 | 62 | 271 | 0.0 | 1.0 | 0.00 | 0.00 | 0.00 | 88 | 1010.5 |
| 20260905060544 | 62 | 281 | 0.0 | 2.0 | 0.00 | 0.00 | 0.00 | 88 | 1010.5 |
| 20260905060042 | 62 | 295 | 0.0 | 2.0 | 0.00 | 0.00 | 0.00 | 88 | 1010.5 |
| 20260905055543 | 62 | 228 | 0.0 | 1.0 | 0.00 | 0.00 | 0.00 | 87 | 1010.5 |
| 20260905055041 | 63 | 317 | 0.0 | 1.0 | 0.00 | 0.00 | 0.00 | 87 | 1010.6 |
| 20260905054549 | 63 | 273 | 0.0 | 3.0 | 0.00 | 0.00 | 0.00 | 87 | 1010.6 |
| 20260905054040 | 63 | 316 | 0.0 | 3.0 | 0.00 | 0.00 | 0.00 | 87 | 1010.7 |
| 20260905053539 | 63 | 284 | 0.0 | 2.0 | 0.00 | 0.00 | 0.00 | 86 | 1010.7 |
| 20260905053043 | 63 | 328 | 1.0 | 4.0 | 0.00 | 0.00 | 0.00 | 86 | 1010.7 |
| 20260905052538 | 63 | 281 | 1.0 | 4.0 | 0.00 | 0.00 | 0.00 | 86 | 1010.8 |
| 20260905052039 | 63 | 283 | 1.0 | 3.0 | 0.00 | 0.00 | 0.00 | 86 | 1010.8 |
| 20260905051542 | 63 | 309 | 0.0 | 2.0 | 0.00 | 0.00 | 0.00 | 86 | 1010.8 |
| 20260905051036 | 63 | 308 | 0.0 | 2.0 | 0.00 | 0.00 | 0.00 | 86 | 1010.9 |
| 20260905050535 | 63 | 335 | 0.0 | 6.0 | 0.00 | 0.00 | 0.00 | 86 | 1011.0 |
| 20260905050043 | 63 | 294 | 1.0 | 6.0 | 0.00 | 0.00 | 0.00 | 85 | 1010.9 |
| 20260905045534 | 63 | 276 | 1.0 | 3.0 | 0.00 | 0.00 | 0.00 | 85 | 1010.9 |
| 20260905045035 | 63 | 262 | 0.0 | 5.0 | 0.00 | 0.00 | 0.00 | 85 | 1010.9 |
| 20260905044535 | 63 | 285 | 2.0 | 5.0 | 0.00 | 0.00 | 0.00 | 85 | 1010.9 |
| 20260905044039 | 63 | 282 | 1.0 | 5.0 | 0.00 | 0.00 | 0.00 | 85 | 1010.9 |
| 20260905043533 | 63 | 296 | 1.0 | 5.0 | 0.00 | 0.00 | 0.00 | 85 | 1010.9 |
| 20260905043033 | 62 | 271 | 2.0 | 4.0 | 0.00 | 0.00 | 0.00 | 86 | 1011.1 |
| 20260905042530 | 62 | 289 | 1.0 | 3.0 | 0.00 | 0.00 | 0.00 | 87 | 1011.0 |
| 20260905042028 | 61 | 278 | 0.0 | 2.0 | 0.00 | 0.00 | 0.00 | 87 | 1011.1 |
| 20260905041528 | 61 | 288 | 0.0 | 2.0 | 0.00 | 0.00 | 0.00 | 88 | 1011.1 |
| 20260905041026 | 61 | 302 | 0.0 | 2.0 | 0.00 | 0.00 | 0.00 | 87 | 1011.2 |
| 20260905040527 | 61 | 302 | 0.0 | 2.0 | 0.00 | 0.00 | 0.00 | 87 | 1011.2 |
| 20260905040025 | 61 | 302 | 0.0 | 1.0 | 0.00 | 0.00 | 0.00 | 87 | 1011.2 |
| 20260905035524 | 61 | 302 | 0.0 | 1.0 | 0.00 | 0.00 | 0.00 | 86 | 1011.2 |
| 20260905035025 | 61 | 302 | 0.0 | 1.0 | 0.00 | 0.00 | 0.00 | 86 | 1011.2 |
| 20260905034533 | 61 | 303 | 0.0 | 3.0 | 0.00 | 0.00 | 0.00 | 86 | 1011.0 |
| 20260905034024 | 61 | 302 | 1.0 | 3.0 | 0.00 | 0.00 | 0.00 | 88 | 1010.9 |
| 20260905033524 | 60 | 251 | 0.0 | 0.0 | 0.00 | 0.00 | 0.00 | 88 | 1011.1 |
| 20260905033026 | 60 | 252 | 0.0 | 0.0 | 0.00 | 0.00 | 0.00 | 88 | 1011.0 |
| 20260905032524 | 60 | 252 | 0.0 | 0.0 | 0.00 | 0.00 | 0.00 | 88 | 1011.0 |
| 20260905032023 | 60 | 252 | 0.0 | 2.0 | 0.00 | 0.00 | 0.00 | 87 | 1011.0 |
| 20260905031522 | 60 | 252 | 0.0 | 2.0 | 0.00 | 0.00 | 0.00 | 87 | 1010.9 |
| 20260905031021 | 60 | 56 | 0.0 | 1.0 | 0.00 | 0.00 | 0.00 | 87 | 1010.9 |
| 20260905030522 | 60 | 317 | 0.0 | 0.0 | 0.00 | 0.00 | 0.00 | 87 | 1010.9 |
| 20260905030025 | 61 | 317 | 0.0 | 0.0 | 0.00 | 0.00 | 0.00 | 87 | 1011.0 |
| 20260905025520 | 61 | 318 | 0.0 | 0.0 | 0.00 | 0.00 | 0.00 | 86 | 1011.0 |
| 20260905025020 | 61 | 317 | 0.0 | 1.0 | 0.00 | 0.00 | 0.00 | 86 | 1011.1 |
| 20260905024520 | 61 | 307 | 0.0 | 1.0 | 0.00 | 0.00 | 0.00 | 86 | 1011.1 |
| 20260905024020 | 61 | 315 | 0.0 | 0.0 | 0.00 | 0.00 | 0.00 | 85 | 1011.1 |
| 20260905023518 | 62 | 315 | 0.0 | 0.0 | 0.00 | 0.00 | 0.00 | 84 | 1011.0 |
| 20260905023023 | 62 | 315 | 0.0 | 1.0 | 0.00 | 0.00 | 0.00 | 83 | 1011.0 |
| 20260905022519 | 62 | 294 | 0.0 | 2.0 | 0.00 | 0.00 | 0.00 | 83 | 1011.1 |
| 20260905022017 | 63 | 266 | 0.0 | 5.0 | 0.00 | 0.00 | 0.00 | 82 | 1011.1 |
| 20260905021515 | 63 | 294 | 1.0 | 5.0 | 0.00 | 0.00 | 0.00 | 82 | 1011.1 |
| 20260905021015 | 63 | 277 | 0.0 | 3.0 | 0.00 | 0.00 | 0.00 | 82 | 1011.1 |
| 20260905020514 | 63 | 300 | 0.0 | 4.0 | 0.00 | 0.00 | 0.00 | 81 | 1011.1 |
| 20260905020020 | 63 | 281 | 1.0 | 5.0 | 0.00 | 0.00 | 0.00 | 81 | 1011.3 |
| 20260905015514 | 64 | 276 | 1.0 | 5.0 | 0.00 | 0.00 | 0.00 | 80 | 1011.3 |
| 20260905015018 | 64 | 285 | 0.0 | 2.0 | 0.00 | 0.00 | 0.00 | 79 | 1011.2 |
| 20260905014525 | 64 | 277 | 0.0 | 1.0 | 0.00 | 0.00 | 0.00 | 79 | 1011.2 |
| 20260905014009 | 64 | 302 | 0.0 | 2.0 | 0.00 | 0.00 | 0.00 | 79 | 1011.3 |
| 20260905013513 | 64 | 302 | 0.0 | 2.0 | 0.00 | 0.00 | 0.00 | 79 | 1011.4 |
| 20260905013015 | 64 | 294 | 0.0 | 3.0 | 0.00 | 0.00 | 0.00 | 79 | 1011.3 |
| 20260905012527 | 64 | 276 | 1.0 | 3.0 | 0.00 | 0.00 | 0.00 | 79 | 1011.3 |
| 20260905012010 | 64 | 285 | 0.0 | 4.0 | 0.00 | 0.00 | 0.00 | 79 | 1011.3 |
| 20260905011520 | 64 | 307 | 1.0 | 4.0 | 0.00 | 0.00 | 0.00 | 78 | 1011.3 |
| 20260905011022 | 64 | 290 | 0.0 | 4.0 | 0.00 | 0.00 | 0.00 | 78 | 1011.3 |
| 20260905010511 | 64 | 290 | 0.0 | 3.0 | 0.00 | 0.00 | 0.00 | 78 | 1011.3 |
| 20260905010015 | 65 | 276 | 0.0 | 3.0 | 0.00 | 0.00 | 0.00 | 78 | 1011.3 |
| 20260905005524 | 65 | 260 | 0.0 | 3.0 | 0.00 | 0.00 | 0.00 | 78 | 1011.3 |
| 20260905005011 | 65 | 298 | 0.0 | 2.0 | 0.00 | 0.00 | 0.00 | 78 | 1011.3 |
| 20260905004519 | 65 | 255 | 0.0 | 3.0 | 0.00 | 0.00 | 0.00 | 79 | 1011.3 |
| 20260905004026 | 65 | 288 | 0.0 | 4.0 | 0.00 | 0.00 | 0.00 | 79 | 1011.4 |
| 20260905003515 | 65 | 289 | 0.0 | 3.0 | 0.00 | 0.00 | 0.00 | 79 | 1011.3 |
| 20260905003015 | 65 | 303 | 0.0 | 3.0 | 0.00 | 0.00 | 0.00 | 79 | 1011.2 |
| 20260905002525 | 65 | 307 | 0.0 | 1.0 | 0.00 | 0.00 | 0.00 | 79 | 1011.2 |
| 20260905002009 | 65 | 307 | 0.0 | 4.0 | 0.00 | 0.00 | 0.00 | 78 | 1011.1 |
| 20260905001519 | 65 | 293 | 1.0 | 4.0 | 0.00 | 0.00 | 0.00 | 77 | 1011.1 |
| 20260905001019 | 65 | 285 | 0.0 | 1.0 | 0.00 | 0.00 | 0.00 | 77 | 1011.0 |
| 20260905000507 | 66 | 291 | 0.0 | 1.0 | 0.00 | 0.00 | 0.00 | 77 | 1011.0 |
| 20260905000015 | 66 | 278 | 0.0 | 2.0 | 0.00 | 0.00 | 0.00 | 76 | 1011.0 |
| 20260904235526 | 66 | 295 | 0.0 | 2.0 | 0.00 | 0.00 | 0.00 | 75 | 1010.9 |
| 20260904235009 | 67 | 278 | 0.0 | 4.0 | 0.00 | 0.00 | 0.00 | 74 | 1010.8 |
| 20260904234533 | 67 | 297 | 1.0 | 4.0 | 0.00 | 0.00 | 0.00 | 74 | 1010.8 |
| 20260904234020 | 67 | 297 | 1.0 | 4.0 | 0.00 | 0.00 | 0.00 | 73 | 1010.8 |
| 20260904233510 | 67 | 314 | 1.0 | 7.0 | 0.00 | 0.00 | 0.00 | 72 | 1010.8 |
| 20260904233015 | 68 | 302 | 3.0 | 6.0 | 0.00 | 0.00 | 0.00 | 72 | 1010.8 |
| 20260904232625 | 68 | 283 | 2.0 | 6.0 | 0.00 | 0.00 | 0.00 | 72 | 1010.8 |
| 20260904232013 | 68 | 309 | 2.0 | 8.0 | 0.00 | 0.00 | 0.00 | 71 | 1010.8 |
| 20260904231519 | 69 | 277 | 3.0 | 10.0 | 0.00 | 0.00 | 0.00 | 70 | 1010.8 |
| 20260904231022 | 69 | 314 | 4.0 | 9.0 | 0.00 | 0.00 | 0.00 | 69 | 1010.8 |
| 20260904230511 | 70 | 276 | 3.0 | 7.0 | 0.00 | 0.00 | 0.00 | 70 | 1010.7 |
| 20260904230016 | 70 | 267 | 3.0 | 9.0 | 0.00 | 0.00 | 0.00 | 68 | 1010.8 |
| 20260904225522 | 70 | 298 | 5.0 | 9.0 | 0.00 | 0.00 | 0.00 | 67 | 1010.7 |
| 20260904225011 | 71 | 275 | 3.0 | 11.0 | 0.00 | 0.00 | 0.00 | 66 | 1010.7 |
| 20260904224520 | 71 | 277 | 5.0 | 11.0 | 0.00 | 0.00 | 0.00 | 66 | 1010.6 |
| 20260904224016 | 71 | 301 | 5.0 | 10.0 | 0.00 | 0.00 | 0.00 | 66 | 1010.7 |
| 20260904223527 | 71 | 274 | 3.0 | 11.0 | 0.00 | 0.00 | 0.00 | 66 | 1010.5 |
| 20260904223015 | 71 | 291 | 4.0 | 12.0 | 0.00 | 0.00 | 0.00 | 65 | 1010.6 |
| 20260904222517 | 72 | 305 | 5.0 | 12.0 | 0.00 | 0.00 | 0.00 | 65 | 1010.4 |
| 20260904222019 | 72 | 285 | 4.0 | 12.0 | 0.00 | 0.00 | 0.00 | 64 | 1010.3 |
| 20260904221532 | 72 | 326 | 5.0 | 9.0 | 0.00 | 0.00 | 0.00 | 64 | 1010.3 |
| 20260904221013 | 72 | 301 | 4.0 | 12.0 | 0.00 | 0.00 | 0.00 | 66 | 1010.3 |
| 20260904220519 | 72 | 304 | 8.0 | 12.0 | 0.00 | 0.00 | 0.00 | 64 | 1010.4 |
| 20260904220021 | 72 | 294 | 4.0 | 13.0 | 0.00 | 0.00 | 0.00 | 64 | 1010.4 |
| 20260904215525 | 72 | 266 | 6.0 | 18.0 | 0.00 | 0.00 | 0.00 | 62 | 1010.4 |
| 20260904215012 | 72 | 300 | 8.0 | 18.0 | 0.00 | 0.00 | 0.00 | 63 | 1010.4 |
| 20260904214522 | 72 | 266 | 6.0 | 13.0 | 0.00 | 0.00 | 0.00 | 64 | 1010.4 |
| 20260904214022 | 72 | 269 | 5.0 | 13.0 | 0.00 | 0.00 | 0.00 | 63 | 1010.5 |
| 20260904213512 | 73 | 284 | 5.0 | 12.0 | 0.00 | 0.00 | 0.00 | 63 | 1010.5 |
| 20260904213016 | 73 | 302 | 7.0 | 12.0 | 0.00 | 0.00 | 0.00 | 63 | 1010.3 |
| 20260904212521 | 72 | 314 | 5.0 | 12.0 | 0.00 | 0.00 | 0.00 | 65 | 1010.3 |
| 20260904212009 | 72 | 297 | 6.0 | 12.0 | 0.00 | 0.00 | 0.00 | 62 | 1010.4 |
| 20260904211516 | 72 | 301 | 7.0 | 13.0 | 0.00 | 0.00 | 0.00 | 64 | 1010.4 |
| 20260904211018 | 72 | 288 | 7.0 | 15.0 | 0.00 | 0.00 | 0.00 | 62 | 1010.5 |
| 20260904210525 | 72 | 296 | 7.0 | 15.0 | 0.00 | 0.00 | 0.00 | 63 | 1010.6 |
| 20260904210011 | 72 | 291 | 6.0 | 11.0 | 0.00 | 0.00 | 0.00 | 63 | 1010.6 |
| 20260904205521 | 72 | 269 | 4.0 | 12.0 | 0.00 | 0.00 | 0.00 | 61 | 1010.6 |
| 20260904205022 | 72 | 300 | 5.0 | 14.0 | 0.00 | 0.00 | 0.00 | 61 | 1010.6 |
| 20260904204511 | 73 | 315 | 8.0 | 13.0 | 0.00 | 0.00 | 0.00 | 61 | 1010.6 |
| 20260904204017 | 73 | 138 | 3.0 | 13.0 | 0.00 | 0.00 | 0.00 | 62 | 1010.5 |
| 20260904203526 | 73 | 289 | 5.0 | 17.0 | 0.00 | 0.00 | 0.00 | 63 | 1010.5 |
| 20260904203013 | 73 | 257 | 9.0 | 17.0 | 0.00 | 0.00 | 0.00 | 60 | 1010.6 |
| 20260904202517 | 73 | 297 | 7.0 | 15.0 | 0.00 | 0.00 | 0.00 | 61 | 1010.6 |
| 20260904202020 | 74 | 309 | 6.0 | 16.0 | 0.00 | 0.00 | 0.00 | 63 | 1010.6 |
| 20260904201524 | 74 | 293 | 6.0 | 17.0 | 0.00 | 0.00 | 0.00 | 63 | 1010.6 |
| 20260904201011 | 74 | 263 | 11.0 | 17.0 | 0.00 | 0.00 | 0.00 | 62 | 1010.7 |
| 20260904200518 | 74 | 266 | 10.0 | 17.0 | 0.00 | 0.00 | 0.00 | 62 | 1010.5 |
| 20260904200016 | 74 | 285 | 2.0 | 7.0 | 0.00 | 0.00 | 0.00 | 64 | 1010.5 |
| 20260904195525 | 74 | 309 | 1.0 | 4.0 | 0.00 | 0.00 | 0.00 | 65 | 1010.5 |
| 20260904195011 | 74 | 347 | 1.0 | 6.0 | 0.00 | 0.00 | 0.00 | 64 | 1010.4 |
| 20260904194519 | 74 | 285 | 2.0 | 10.0 | 0.00 | 0.00 | 0.00 | 65 | 1010.4 |
| 20260904194009 | 73 | 271 | 1.0 | 15.0 | 0.00 | 0.00 | 0.00 | 68 | 1010.4 |
| 20260904193516 | 73 | 267 | 4.0 | 14.0 | 0.00 | 0.00 | 0.00 | 65 | 1010.5 |
| 20260904193023 | 74 | 300 | 6.0 | 14.0 | 0.00 | 0.00 | 0.00 | 64 | 1010.6 |
| 20260904192532 | 74 | 276 | 1.0 | 12.0 | 0.00 | 0.00 | 0.00 | 63 | 1010.7 |
| 20260904192018 | 74 | 281 | 7.0 | 16.0 | 0.00 | 0.00 | 0.00 | 64 | 1010.7 |
| 20260904191525 | 74 | 293 | 9.0 | 16.0 | 0.00 | 0.00 | 0.00 | 62 | 1010.6 |
| 20260904191008 | 75 | 277 | 9.0 | 14.0 | 0.00 | 0.00 | 0.00 | 65 | 1010.6 |
| 20260904190516 | 75 | 285 | 6.0 | 12.0 | 0.00 | 0.00 | 0.00 | 63 | 1010.6 |
| 20260904190024 | 74 | 283 | 5.0 | 12.0 | 0.00 | 0.00 | 0.00 | 61 | 1010.7 |
| 20260904185525 | 74 | 288 | 4.0 | 13.0 | 0.00 | 0.00 | 0.00 | 63 | 1010.7 |
| 20260904185012 | 74 | 250 | 5.0 | 20.0 | 0.00 | 0.00 | 0.00 | 62 | 1010.7 |
| 20260904184517 | 74 | 271 | 7.0 | 20.0 | 0.00 | 0.00 | 0.00 | 61 | 1010.9 |
| 20260904184019 | 74 | 293 | 4.0 | 10.0 | 0.00 | 0.00 | 0.00 | 62 | 1010.9 |
| 20260904183509 | 74 | 215 | 2.0 | 13.0 | 0.00 | 0.00 | 0.00 | 65 | 1010.9 |
| 20260904183015 | 73 | 264 | 6.0 | 13.0 | 0.00 | 0.00 | 0.00 | 62 | 1010.9 |
| 20260904182525 | 73 | 276 | 6.0 | 13.0 | 0.00 | 0.00 | 0.00 | 67 | 1011.0 |
| 20260904182008 | 73 | 264 | 5.0 | 10.0 | 0.00 | 0.00 | 0.00 | 66 | 1010.9 |
| 20260904181521 | 73 | 250 | 3.0 | 10.0 | 0.00 | 0.00 | 0.00 | 66 | 1011.0 |
| 20260904181019 | 73 | 277 | 4.0 | 10.0 | 0.00 | 0.00 | 0.00 | 67 | 1011.1 |
| 20260904180524 | 72 | 289 | 3.0 | 10.0 | 0.00 | 0.00 | 0.00 | 69 | 1011.2 |
| 20260904180014 | 71 | 240 | 5.0 | 11.0 | 0.00 | 0.00 | 0.00 | 68 | 1011.2 |
| 20260904175519 | 71 | 275 | 6.0 | 11.0 | 0.00 | 0.00 | 0.00 | 67 | 1011.2 |
| 20260904175023 | 71 | 255 | 3.0 | 8.0 | 0.00 | 0.00 | 0.00 | 69 | 1011.4 |
| 20260904174512 | 72 | 326 | 0.0 | 10.0 | 0.00 | 0.00 | 0.00 | 68 | 1011.4 |
| 20260904174016 | 72 | 303 | 6.0 | 12.0 | 0.00 | 0.00 | 0.00 | 66 | 1011.3 |
| 20260904173523 | 72 | 242 | 6.0 | 12.0 | 0.00 | 0.00 | 0.00 | 65 | 1011.5 |
| 20260904173008 | 72 | 307 | 3.0 | 9.0 | 0.00 | 0.00 | 0.00 | 67 | 1011.5 |
| 20260904172519 | 72 | 276 | 1.0 | 13.0 | 0.00 | 0.00 | 0.00 | 70 | 1011.5 |
| 20260904172019 | 72 | 298 | 8.0 | 13.0 | 0.00 | 0.00 | 0.00 | 65 | 1011.5 |
| 20260904171509 | 73 | 307 | 6.0 | 12.0 | 0.00 | 0.00 | 0.00 | 64 | 1011.5 |
| 20260904171014 | 72 | 283 | 0.0 | 9.0 | 0.00 | 0.00 | 0.00 | 63 | 1011.4 |
| 20260904170519 | 73 | 281 | 1.0 | 9.0 | 0.00 | 0.00 | 0.00 | 64 | 1011.5 |
| 20260904170022 | 73 | 282 | 1.0 | 8.0 | 0.00 | 0.00 | 0.00 | 67 | 1011.4 |
| 20260904165528 | 72 | 79 | 1.0 | 9.0 | 0.00 | 0.00 | 0.00 | 66 | 1011.4 |
| 20260904165013 | 72 | 325 | 2.0 | 8.0 | 0.00 | 0.00 | 0.00 | 66 | 1011.4 |
| 20260904164517 | 71 | 297 | 3.0 | 7.0 | 0.00 | 0.00 | 0.00 | 67 | 1011.3 |
| 20260904164013 | 72 | 310 | 2.0 | 7.0 | 0.00 | 0.00 | 0.00 | 68 | 1011.4 |
| 20260904163527 | 72 | 210 | 0.0 | 10.0 | 0.00 | 0.00 | 0.00 | 68 | 1011.4 |
| 20260904163009 | 71 | 285 | 4.0 | 13.0 | 0.00 | 0.00 | 0.00 | 70 | 1011.4 |
| 20260904162518 | 71 | 277 | 2.0 | 13.0 | 0.00 | 0.00 | 0.00 | 71 | 1011.5 |
| 20260904162021 | 71 | 301 | 5.0 | 10.0 | 0.00 | 0.00 | 0.00 | 72 | 1011.6 |
| 20260904161507 | 71 | 288 | 4.0 | 9.0 | 0.00 | 0.00 | 0.00 | 70 | 1011.7 |
| 20260904161012 | 71 | 288 | 4.0 | 7.0 | 0.00 | 0.00 | 0.00 | 72 | 1011.6 |
| 20260904160521 | 71 | 291 | 1.0 | 7.0 | 0.00 | 0.00 | 0.00 | 73 | 1011.7 |
| 20260904160018 | 71 | 307 | 4.0 | 12.0 | 0.00 | 0.00 | 0.00 | 73 | 1011.8 |
| 20260904155518 | 70 | 336 | 4.0 | 12.0 | 0.00 | 0.00 | 0.00 | 73 | 1011.9 |
| 20260904155023 | 70 | 293 | 4.0 | 7.0 | 0.00 | 0.00 | 0.00 | 73 | 1011.8 |
| 20260904154512 | 70 | 280 | 3.0 | 8.0 | 0.00 | 0.00 | 0.00 | 75 | 1012.0 |
| 20260904154017 | 70 | 280 | 4.0 | 14.0 | 0.00 | 0.00 | 0.00 | 74 | 1012.0 |
| 20260904153526 | 70 | 268 | 5.0 | 14.0 | 0.00 | 0.00 | 0.00 | 74 | 1012.0 |
| 20260904153012 | 70 | 280 | 5.0 | 9.0 | 0.00 | 0.00 | 0.00 | 76 | 1011.8 |
| 20260904152521 | 69 | 295 | 5.0 | 9.0 | 0.00 | 0.00 | 0.00 | 77 | 1011.8 |
| 20260904152021 | 69 | 264 | 3.0 | 9.0 | 0.00 | 0.00 | 0.00 | 79 | 1011.8 |
| 20260904151529 | 69 | 302 | 1.0 | 9.0 | 0.00 | 0.00 | 0.00 | 77 | 1011.9 |
| 20260904151017 | 69 | 285 | 2.0 | 10.0 | 0.00 | 0.00 | 0.00 | 76 | 1011.9 |
| 20260904150525 | 70 | 111 | 0.0 | 6.0 | 0.00 | 0.00 | 0.00 | 78 | 1011.9 |
| 20260904150028 | 69 | 277 | 2.0 | 8.0 | 0.00 | 0.00 | 0.00 | 80 | 1012.0 |
| 20260904145520 | 69 | 285 | 1.0 | 9.0 | 0.00 | 0.00 | 0.00 | 82 | 1012.0 |
| 20260904145015 | 68 | 267 | 3.0 | 9.0 | 0.00 | 0.00 | 0.00 | 83 | 1012.1 |
| 20260904144520 | 68 | 210 | 2.0 | 9.0 | 0.00 | 0.00 | 0.00 | 83 | 1012.2 |
| 20260904144007 | 68 | 278 | 6.0 | 10.0 | 0.00 | 0.00 | 0.00 | 85 | 1012.1 |
| 20260904143517 | 68 | 261 | 6.0 | 10.0 | 0.00 | 0.00 | 0.00 | 85 | 1012.1 |
| 20260904143020 | 67 | 290 | 2.0 | 8.0 | 0.00 | 0.00 | 0.00 | 86 | 1012.1 |
| 20260904142524 | 67 | 276 | 5.0 | 9.0 | 0.00 | 0.00 | 0.00 | 84 | 1012.1 |
| 20260904142012 | 67 | 305 | 5.0 | 9.0 | 0.00 | 0.00 | 0.00 | 84 | 1012.0 |
| 20260904141522 | 67 | 304 | 4.0 | 10.0 | 0.00 | 0.00 | 0.00 | 86 | 1012.0 |
| 20260904141019 | 67 | 288 | 5.0 | 10.0 | 0.00 | 0.00 | 0.00 | 85 | 1012.0 |
| 20260904140532 | 67 | 308 | 4.0 | 9.0 | 0.00 | 0.00 | 0.00 | 85 | 1011.8 |
| 20260904140021 | 67 | 295 | 3.0 | 9.0 | 0.00 | 0.00 | 0.00 | 86 | 1011.8 |
| 20260904135517 | 67 | 290 | 4.0 | 9.0 | 0.00 | 0.00 | 0.00 | 85 | 1011.8 |
| 20260904135020 | 67 | 285 | 5.0 | 9.0 | 0.00 | 0.00 | 0.00 | 84 | 1011.8 |
| 20260904134524 | 67 | 293 | 4.0 | 12.0 | 0.00 | 0.00 | 0.00 | 86 | 1011.7 |
| 20260904134012 | 67 | 274 | 6.0 | 11.0 | 0.00 | 0.00 | 0.00 | 87 | 1011.7 |
| 20260904133516 | 66 | 270 | 5.0 | 9.0 | 0.00 | 0.00 | 0.00 | 87 | 1011.8 |
| 20260904133021 | 66 | 282 | 5.0 | 10.0 | 0.00 | 0.00 | 0.00 | 87 | 1011.8 |
| 20260904132512 | 66 | 296 | 6.0 | 10.0 | 0.00 | 0.00 | 0.00 | 87 | 1011.9 |
| 20260904132021 | 66 | 280 | 5.0 | 8.0 | 0.00 | 0.00 | 0.00 | 88 | 1011.8 |
| 20260904131528 | 65 | 294 | 3.0 | 9.0 | 0.00 | 0.00 | 0.00 | 88 | 1011.8 |
| 20260904131015 | 65 | 275 | 4.0 | 10.0 | 0.00 | 0.00 | 0.00 | 89 | 1011.8 |
| 20260904130525 | 65 | 277 | 6.0 | 10.0 | 0.00 | 0.00 | 0.00 | 89 | 1011.8 |
| 20260904130030 | 65 | 291 | 4.0 | 8.0 | 0.00 | 0.00 | 0.00 | 90 | 1011.8 |
| 20260904125518 | 64 | 276 | 4.0 | 8.0 | 0.00 | 0.00 | 0.00 | 90 | 1011.9 |
| 20260904125019 | 64 | 314 | 5.0 | 10.0 | 0.00 | 0.00 | 0.00 | 91 | 1011.9 |
| 20260904124508 | 64 | 288 | 5.0 | 8.0 | 0.00 | 0.00 | 0.00 | 91 | 1011.9 |
| 20260904124012 | 64 | 269 | 4.0 | 7.0 | 0.00 | 0.00 | 0.00 | 92 | 1012.0 |
| 20260904123523 | 64 | 304 | 2.0 | 6.0 | 0.00 | 0.00 | 0.00 | 92 | 1012.1 |
| 20260904123011 | 64 | 284 | 2.0 | 7.0 | 0.00 | 0.00 | 0.00 | 92 | 1012.1 |
| 20260904122517 | 64 | 264 | 3.0 | 7.0 | 0.00 | 0.00 | 0.00 | 93 | 1012.1 |
| 20260904122020 | 64 | 301 | 2.0 | 7.0 | 0.00 | 0.00 | 0.00 | 93 | 1012.1 |
| 20260904121523 | 64 | 259 | 3.0 | 6.0 | 0.00 | 0.00 | 0.00 | 93 | 1012.1 |
| 20260904121008 | 63 | 276 | 3.0 | 8.0 | 0.00 | 0.00 | 0.00 | 93 | 1012.1 |
| 20260904120525 | 63 | 268 | 3.0 | 8.0 | 0.00 | 0.00 | 0.00 | 93 | 1012.0 |
| 20260904120058 | 63 | 293 | 2.0 | 7.0 | 0.00 | 0.00 | 0.00 | 93 | 1012.0 |
| 20260904115557 | 63 | 288 | 3.0 | 8.0 | 0.00 | 0.00 | 0.00 | 93 | 1011.9 |
| 20260904115056 | 63 | 289 | 2.0 | 5.0 | 0.00 | 0.00 | 0.00 | 94 | 1011.9 |
| 20260904114556 | 63 | 278 | 2.0 | 6.0 | 0.00 | 0.00 | 0.00 | 94 | 1011.9 |
| 20260904114056 | 63 | 280 | 3.0 | 6.0 | 0.00 | 0.00 | 0.00 | 94 | 1011.9 |
| 20260904113554 | 62 | 284 | 2.0 | 6.0 | 0.00 | 0.00 | 0.00 | 94 | 1011.7 |
| 20260904113055 | 62 | 296 | 2.0 | 6.0 | 0.00 | 0.00 | 0.00 | 95 | 1011.7 |
| 20260904112553 | 62 | 56 | 0.0 | 1.0 | 0.00 | 0.00 | 0.00 | 94 | 1011.6 |
| 20260904112055 | 62 | 307 | 0.0 | 3.0 | 0.00 | 0.00 | 0.00 | 94 | 1011.6 |
| 20260904111553 | 63 | 307 | 0.0 | 4.0 | 0.00 | 0.00 | 0.00 | 94 | 1011.5 |
| 20260904111052 | 63 | 296 | 1.0 | 5.0 | 0.00 | 0.00 | 0.00 | 94 | 1011.5 |
| 20260904110551 | 63 | 274 | 1.0 | 4.0 | 0.00 | 0.00 | 0.00 | 94 | 1011.5 |
| 20260904110053 | 63 | 246 | 1.0 | 4.0 | 0.00 | 0.00 | 0.00 | 94 | 1011.3 |
| 20260904105550 | 63 | 287 | 1.0 | 4.0 | 0.00 | 0.00 | 0.00 | 94 | 1011.2 |
| 20260904105049 | 63 | 300 | 1.0 | 5.0 | 0.00 | 0.00 | 0.00 | 94 | 1011.1 |
| 20260904104549 | 63 | 300 | 2.0 | 5.0 | 0.00 | 0.00 | 0.00 | 93 | 1011.0 |
| 20260904104047 | 63 | 291 | 2.0 | 7.0 | 0.00 | 0.00 | 0.00 | 93 | 1011.1 |
| 20260904103548 | 64 | 300 | 3.0 | 8.0 | 0.00 | 0.00 | 0.00 | 93 | 1011.1 |
| 20260904103049 | 64 | 295 | 4.0 | 8.0 | 0.00 | 0.00 | 0.00 | 93 | 1011.0 |
| 20260904102551 | 64 | 283 | 3.0 | 6.0 | 0.00 | 0.00 | 0.00 | 93 | 1010.9 |
| 20260904102048 | 64 | 293 | 1.0 | 5.0 | 0.00 | 0.00 | 0.00 | 92 | 1011.0 |
| 20260904101550 | 64 | 285 | 2.0 | 8.0 | 0.00 | 0.00 | 0.00 | 92 | 1010.9 |
| 20260904101050 | 64 | 290 | 4.0 | 8.0 | 0.00 | 0.00 | 0.00 | 91 | 1010.8 |
| 20260904100547 | 64 | 304 | 4.0 | 7.0 | 0.00 | 0.00 | 0.00 | 91 | 1010.7 |
| 20260904100047 | 64 | 285 | 3.0 | 7.0 | 0.00 | 0.00 | 0.00 | 91 | 1010.6 |
| 20260904095545 | 64 | 301 | 4.0 | 7.0 | 0.00 | 0.00 | 0.00 | 92 | 1010.7 |
| 20260904095045 | 64 | 302 | 3.0 | 7.0 | 0.00 | 0.00 | 0.00 | 92 | 1010.7 |
| 20260904094545 | 64 | 314 | 4.0 | 8.0 | 0.00 | 0.00 | 0.00 | 92 | 1010.8 |
| 20260904094045 | 64 | 292 | 4.0 | 8.0 | 0.00 | 0.00 | 0.00 | 92 | 1010.8 |